Voltar ao catálogo

CZ-4C DEB

AtivoLEO
NORAD 43627·DEBRIS·🇨🇳 China

Lançado Nov 20, 2013 de Taiyuan Satellite Launch Center

Loading…

Próximas Passagens (próximas 24 horas)

TLE

AtualizadoSource: Space-Track

Época: Sep 14, 2026, 23:26 UTC

1 43627U 13065D   26257.97685847  .00009711  00000-0  32569-2 0  9998
2 43627 100.5831 156.1212 0109778 151.5249 209.1986 14.34151796410684

Acompanhe CZ-4C DEB em tempo real com AllMySat

Download on the App Store